This demonstration page uses our WeatherBlox Daily Observations layout. Learn more.

Hourly Observations for August 14, 2019

Temp ( °F °C ) Dew Point ( °F °C ) Humidity (%) Winds ( mph kmh ) Pressure ( in mb ) Visibility ( mi km ) Precip ( " mm )
12:15 am 00:15 Clear 66 18.7 64 18 96 96 N 5 7 30.06 1018 10 16.09344 0 0
12:35 am 00:35 Clear 65 18.6 64 17.7 95 95 Calm 30.06 1018 10 16.09344 0 0
12:55 am 00:55 Clear 64 18 64 17.6 98 98 Calm 30.06 1018 10 16.09344 0 0
1:15 am 01:15 Clear 64 17.6 64 17.5 99 99 Calm 30.09 1019 10 16.09344 0 0
1:35 am 01:35 Clear 63 17.3 63 17.2 99 99 NW 3 6 30.12 1020 10 16.09344 0 0
1:55 am 01:55 Clear 63 17.3 63 17.3 100 100 NNW 6 9 30.12 1020 10 16.09344 0 0
2:15 am 02:15 Clear 63 17.3 63 17.2 99 99 NNW 3 6 30.12 1020 10 16.09344 0 0
2:35 am 02:35 Clear 63 17.1 63 17 99 99 NNW 5 7 30.12 1020 10 16.09344 0 0
2:55 am 02:55 Clear 63 17 63 17 100 100 N 5 7 30.12 1020 10 16.09344 0 0
3:15 am 03:15 Clear 63 17 63 17 100 100 Calm 30.12 1020 10 16.09344 0 0
3:35 am 03:35 Clear 63 17.1 63 17.1 100 100 NNE 7 11 30.12 1020 10 16.09344 0 0
3:55 am 03:55 Clear 63 17.1 63 17 99 99 NNE 6 9 30.12 1020 10 16.09344 0 0
4:15 am 04:15 Clear 62 16.5 62 16.5 100 100 NNE 5 7 30.12 1020 10 16.09344 0 0
4:35 am 04:35 Clear 61 16.2 61 16.2 100 100 NNE 5 7 30.12 1020 10 16.09344 0 0
4:50 am 04:50 Clear 61 16 61 16 100 100 NNE 5 7 30.09 1019 10 16.09344 0 0
5:15 am 05:15 Clear 60 15.6 60 15.6 100 100 NE 3 6 30.09 1019 10 16.09344 0 0
5:35 am 05:35 Clear 60 15.3 60 15.3 100 100 N 7 11 30.12 1020 10 16.09344 0 0
5:55 am 05:55 Clear 60 15.3 60 15.3 100 100 N 5 7 30.12 1020 10 16.09344 0 0
6:15 am 06:15 Clear 59 15.2 59 15.2 100 100 NNE 7 11 30.12 1020 10 16.09344 0 0
6:35 am 06:35 Clear 59 15 59 14.8 99 99 NNE 6 9 30.15 1021 10 16.09344 0 0
6:55 am 06:55 Sunny 59 14.8 59 14.8 100 100 N 3 6 30.15 1021 10 16.09344 0 0
7:15 am 07:15 Sunny 59 14.9 59 14.9 100 100 N 5 7 30.15 1021 10 16.09344 0 0
7:35 am 07:35 Sunny 60 15.3 60 15.3 100 100 NNE 6 9 30.15 1021 10 16.09344 0 0
7:55 am 07:55 Sunny 60 15.7 60 15.6 99 99 NNE 7 11 30.15 1021 10 16.09344 0 0
8:15 am 08:15 Sunny 61 15.9 60 15.3 96 96 NNE 9 15 30.18 1022 10 16.09344 0 0
8:35 am 08:35 Sunny 61 16 60 15.3 96 96 NNE 7 11 30.18 1022 10 16.09344 0 0
8:55 am 08:55 Sunny 62 16.7 60 15.4 92 92 NE 9 15 30.18 1022 10 16.09344 0 0
9:15 am 09:15 Sunny 63 17.1 59 15.2 89 89 NE 10 17 30.18 1022 10 16.09344 0 0
9:35 am 09:35 Sunny 63 17.1 59 15 88 88 NNE 9 15 30.18 1022 10 16.09344 0 0
9:55 am 09:55 Sunny 65 18.3 59 15.1 82 82 NE 9 15 30.15 1021 10 16.09344 0 0
10:15 am 10:15 Sunny 66 18.8 59 14.8 78 78 NE 9 15 30.15 1021 10 16.09344 0 0
10:35 am 10:35 Sunny 67 19.6 59 15.2 76 76 E 8 13 30.15 1021 10 16.09344 0 0
10:55 am 10:55 Sunny 68 20 59 15.2 74 74 ENE 9 15 30.12 1020 10 16.09344 0 0
11:15 am 11:15 Sunny 69 20.6 59 14.9 70 70 NE 6 9 30.15 1021 10 16.09344 0 0
11:35 am 11:35 Sunny 70 20.9 59 15.2 70 70 ENE 7 11 30.15 1021 10 16.09344 0 0
11:55 am 11:55 Sunny 71 21.5 59 15.2 67 67 NNE 5 7 30.15 1021 10 16.09344 0 0
12:15 pm 12:15 Sunny 72 22.2 61 15.9 68 68 N 7 11 30.12 1020 10 16.09344 0 0
12:35 pm 12:35 Sunny 72 22.1 60 15.8 68 68 NNE 3 6 30.09 1019 10 16.09344 0 0
12:55 pm 12:55 Sunny 73 22.7 60 15.6 64 64 N 6 9 30.09 1019 10 16.09344 0 0
1:15 pm 13:15 Sunny 73 23 60 15.8 64 64 NNE 6 9 30.09 1019 10 16.09344 0 0
1:35 pm 13:35 Sunny 74 23.2 61 16.3 65 65 N 6 9 30.06 1018 10 16.09344 0 0
1:55 pm 13:55 Sunny 74 23.2 61 16.1 64 64 N 5 7 30.06 1018 10 16.09344 0 0
2:15 pm 14:15 Sunny 74 23.6 61 15.9 62 62 NE 3 6 30.06 1018 10 16.09344 0 0
2:35 pm 14:35 Sunny 75 23.7 62 16.4 64 64 E 3 6 30.06 1018 10 16.09344 0 0
2:55 pm 14:55 Sunny 74 23.4 62 16.7 66 66 NE 6 9 30.06 1018 10 16.09344 0 0
3:15 pm 15:15 Sunny 76 24.4 62 16.9 63 63 N 6 9 30.06 1018 10 16.09344 0 0
3:35 pm 15:35 Sunny 74 23.3 63 17.1 68 68 N 7 11 30.09 1019 10 16.09344 0 0
3:55 pm 15:55 Partly Cloudy 75 23.7 64 17.9 70 70 E 8 13 30.03 1017 10 16.09344 0 0
4:15 pm 16:15 Sunny 76 24.5 63 17.2 64 64 SE 7 11 30 1016 10 16.09344 0 0
4:35 pm 16:35 Partly Cloudy with Nearby Thunderstorms 74 23.3 63 17.1 68 68 N 3 6 30.06 1018 10 16.09344 0 0
4:55 pm 16:55 Partly Cloudy 74 23.5 64 17.9 71 71 NE 6 9 30.03 1017 10 16.09344 0 0
5:15 pm 17:15 Partly Cloudy 74 23.2 64 17.8 72 72 NNE 9 15 30.06 1018 10 16.09344 0 0
5:35 pm 17:35 Partly Cloudy 72 22.1 63 17.4 75 75 N 13 20 30.09 1019 10 16.09344 0 0
5:55 pm 17:55 Partly Cloudy 70 21 63 17.1 79 79 NNE 7 11 30.12 1020 10 16.09344 0 0
6:15 pm 18:15 Mostly Cloudy with Nearby Thunderstorms 68 20.1 63 17.2 83 83 NE 6 9 30.09 1019 10 16.09344 0 0
6:35 pm 18:35 Mostly Cloudy with Light Rain 68 20 63 17 83 83 SE 15 24 30.06 1018 10 16.09344 0 0
6:55 pm 18:55 Mostly Cloudy with Light Rain 69 20.3 63 17.2 82 82 S 6 9 30.06 1018 10 16.09344 0 0
7:15 pm 19:15 Mostly Cloudy 69 20.8 62 16.6 77 77 SSE 5 7 30.03 1017 10 16.09344 0 0
7:35 pm 19:35 Mostly Cloudy 69 20.7 63 17.2 80 80 SE 7 11 30.03 1017 10 16.09344 0 0
7:55 pm 19:55 Mostly Cloudy 69 20.6 62 16.7 78 78 S 8 13 30.06 1018 10 16.09344 0 0
8:15 pm 20:15 Cloudy 68 20.1 61 16 77 77 S 8 13 30.03 1017 10 16.09344 0 0
8:35 pm 20:35 Mostly Cloudy 67 19.5 60 15.8 79 79 Calm 30.03 1017 10 16.09344 0 0
8:55 pm 20:55 Partly Cloudy 67 19.3 60 15.7 80 80 Calm 30.03 1017 10 16.09344 0 0
9:15 pm 21:15 Clear 64 17.5 60 15.8 90 90 Calm 30.06 1018 10 16.09344 0 0
9:35 pm 21:35 Clear 63 17.1 61 16 93 93 NNE 6 9 30.09 1019 10 16.09344 0 0
9:55 pm 21:55 Clear 62 16.7 61 16.2 97 97 NE 6 9 30.09 1019 10 16.09344 0 0
10:15 pm 22:15 Clear 61 16.3 61 16.1 99 99 NNE 5 7 30.09 1019 10 16.09344 0 0
10:35 pm 22:35 Clear 61 15.9 61 15.9 100 100 Calm 30.09 1019 10 16.09344 0 0
10:55 pm 22:55 Clear 60 15.6 60 15.6 100 100 NNE 3 6 30.09 1019 10 16.09344 0 0
11:15 pm 23:15 Clear 60 15.5 60 15.5 100 100 NNE 3 6 30.09 1019 10 16.09344 0 0
11:35 pm 23:35 Clear 59 15.2 59 15.2 100 100 NNE 3 6 30.09 1019 10 16.09344 0 0
11:55 pm 23:55 Clear 59 15 59 15 100 100 Calm 30.09 1019 10 16.09344 0 0

Powered by AerisWeather